When you browse on this site, cookies collect data to enhance your experience and personalize the content and advertising you see.
Visit our Privacy Policy to learn more. By continuing to use the site, you agree to this use of cookies and data.
  • In Latvia
  • List of Countries
  • For 7 days
  • Water Temperature
  • Satellite Maps
  • Weather Map
  • Weather Widgets
  • user-avatar
    Login

    Hourly Weather Herāt

    Today, 22 February, Friday

    Time Temperature Precipitation Wind Pressure Humidity
    00:00 +4°C° 0 mm 1 mps 682 mmHg 52%
    01:00 +4°C° 0 mm 1 mps 682 mmHg 51%
    02:00 +3°C° 0 mm 2 mps 682 mmHg 51%
    03:00 +3°C° 0 mm 2 mps 681 mmHg 51%
    04:00 +3°C° 0 mm 2 mps 681 mmHg 49%
    05:00 +3°C° 0 mm 2 mps 682 mmHg 48%
    06:00 +3°C° 0 mm 2 mps 682 mmHg 46%
    07:00 +2°C° 0 mm 3 mps 682 mmHg 44%
    08:00 +4°C° 0 mm 3 mps 682 mmHg 38%
    09:00 +7°C° 0 mm 3 mps 682 mmHg 32%
    10:00 +9°C° 0 mm 3 mps 682 mmHg 27%
    11:00 +10°C° 0 mm 3 mps 682 mmHg 26%
    12:00 +11°C° 0 mm 4 mps 682 mmHg 24%
    13:00 +12°C° 0 mm 4 mps 682 mmHg 23%
    14:00 +12°C° 0 mm 4 mps 681 mmHg 23%
    15:00 +12°C° 0 mm 4 mps 681 mmHg 24%
    16:00 +13°C° 0 mm 3 mps 680 mmHg 23%
    17:00 +12°C° 0 mm 3 mps 680 mmHg 27%
    18:00 +10°C° 0 mm 2 mps 681 mmHg 30%
    19:00 +9°C° 0 mm 2 mps 681 mmHg 33%
    20:00 +9°C° 0 mm 2 mps 681 mmHg 34%
    21:00 +9°C° 0 mm 2 mps 681 mmHg 34%
    22:00 +8°C° 0 mm 2 mps 681 mmHg 35%
    23:00 +8°C° 0 mm 2 mps 681 mmHg 35%

    Tomorrow, 23 February, Saturday

    Time Temperature Precipitation Wind Pressure Humidity
    00:00 +7°C° 0 mm 2 mps 681 mmHg 36%
    01:00 +7°C° 0 mm 2 mps 680 mmHg 37%
    02:00 +7°C° 0 mm 2 mps 680 mmHg 37%
    03:00 +7°C° 0 mm 2 mps 680 mmHg 37%
    04:00 +6°C° 0 mm 2 mps 680 mmHg 37%
    05:00 +6°C° 0 mm 2 mps 680 mmHg 36%
    06:00 +6°C° 0 mm 2 mps 680 mmHg 35%
    07:00 +7°C° 0 mm 2 mps 681 mmHg 34%
    08:00 +8°C° 0 mm 3 mps 681 mmHg 32%
    09:00 +10°C° 0 mm 3 mps 681 mmHg 30%
    10:00 +11°C° 0 mm 4 mps 682 mmHg 28%
    11:00 +12°C° 0 mm 3 mps 681 mmHg 29%
    12:00 +14°C° 0 mm 2 mps 681 mmHg 30%
    13:00 +14°C° 0 mm 1 mps 681 mmHg 31%
    14:00 +14°C° 0 mm 1 mps 681 mmHg 31%
    15:00 +14°C° 0 mm 1 mps 681 mmHg 31%
    16:00 +14°C° 0 mm 2 mps 680 mmHg 31%
    17:00 +13°C° 0 mm 2 mps 681 mmHg 35%
    18:00 +12°C° 0 mm 2 mps 681 mmHg 39%
    19:00 +10°C° 0 mm 2 mps 681 mmHg 42%
    20:00 +10°C° 0 mm 3 mps 681 mmHg 45%
    21:00 +9°C° 0 mm 3 mps 681 mmHg 48%
    22:00 +8°C° 0 mm 3 mps 681 mmHg 50%
    23:00 +8°C° 0 mm 3 mps 681 mmHg 51%

    Day after tomorrow, 24 February, Sunday

    Time Temperature Precipitation Wind Pressure Humidity
    00:00 +7°C° 0 mm 3 mps 681 mmHg 52%
    01:00 +7°C° 0 mm 3 mps 681 mmHg 54%
    02:00 +7°C° 0 mm 3 mps 680 mmHg 54%
    03:00 +5°C° 0 mm 3 mps 680 mmHg 54%
    04:00 +5°C° 0 mm 3 mps 680 mmHg 54%
    05:00 +5°C° 0 mm 3 mps 680 mmHg 54%
    06:00 +5°C° 0 mm 3 mps 680 mmHg 54%
    07:00 +4°C° 0 mm 3 mps 681 mmHg 54%
    08:00 +7°C° 0 mm 3 mps 681 mmHg 49%
    09:00 +8°C° 0 mm 2 mps 681 mmHg 44%
    10:00 +10°C° 0 mm 2 mps 681 mmHg 38%
    11:00 +12°C° 0 mm 2 mps 681 mmHg 37%
    12:00 +12°C° 0 mm 2 mps 681 mmHg 36%
    13:00 +13°C° 0 mm 2 mps 680 mmHg 34%
    14:00 +13°C° 0 mm 2 mps 680 mmHg 35%
    15:00 +12°C° 0 mm 3 mps 680 mmHg 35%
    16:00 +12°C° 0 mm 3 mps 679 mmHg 36%
    17:00 +11°C° 0 mm 3 mps 680 mmHg 40%
    18:00 +10°C° 0 mm 3 mps 680 mmHg 44%
    19:00 +8°C° 0 mm 4 mps 680 mmHg 48%
    20:00 +8°C° 0 mm 4 mps 680 mmHg 50%
    21:00 +8°C° 0 mm 3 mps 680 mmHg 52%
    22:00 +8°C° 0 mm 3 mps 680 mmHg 54%
    23:00 +7°C° 0 mm 3 mps 680 mmHg 55%

    25 February, Monday

    Time Temperature Precipitation Wind Pressure Humidity
    00:00 +5°C° 0 mm 3 mps 680 mmHg 56%
    01:00 +6°C° 0 mm 2 mps 680 mmHg 56%
    02:00 +6°C° 0 mm 2 mps 680 mmHg 57%
    03:00 +5°C° 0 mm 2 mps 680 mmHg 58%
    04:00 +5°C° 0 mm 2 mps 679 mmHg 59%
    05:00 +5°C° 0 mm 2 mps 679 mmHg 59%
    06:00 +4°C° 0 mm 2 mps 680 mmHg 60%
    07:00 +4°C° 0 mm 2 mps 680 mmHg 60%
    08:00 +5°C° 0 mm 3 mps 680 mmHg 54%
    09:00 +7°C° 0 mm 3 mps 680 mmHg 49%
    10:00 +9°C° 0 mm 3 mps 680 mmHg 43%
    11:00 +9°C° 0 mm 3 mps 680 mmHg 40%
    12:00 +10°C° 0 mm 4 mps 679 mmHg 37%
    13:00 +11°C° 0 mm 4 mps 679 mmHg 34%
    14:00 +11°C° 0 mm 4 mps 679 mmHg 35%
    15:00 +10°C° 0 mm 5 mps 678 mmHg 36%
    16:00 +10°C° 0 mm 5 mps 678 mmHg 37%
    17:00 +9°C° 0 mm 5 mps 678 mmHg 41%
    18:00 +8°C° 0 mm 5 mps 679 mmHg 45%
    19:00 +7°C° 0 mm 5 mps 679 mmHg 49%
    20:00 +7°C° 0 mm 4 mps 679 mmHg 50%
    21:00 +6°C° 0 mm 4 mps 679 mmHg 52%
    22:00 +5°C° 0 mm 4 mps 679 mmHg 54%
    23:00 +5°C° 0 mm 3 mps 679 mmHg 55%

    26 February, Tuesday

    Time Temperature Precipitation Wind Pressure Humidity
    00:00 +5°C° 0 mm 3 mps 679 mmHg 56%
    01:00 +5°C° 0 mm 2 mps 678 mmHg 58%
    02:00 +5°C° 0 mm 2 mps 678 mmHg 59%
    03:00 +4°C° 0 mm 2 mps 678 mmHg 60%
    04:00 +4°C° 0 mm 2 mps 678 mmHg 62%
    05:00 +4°C° 0 mm 2 mps 679 mmHg 62%
    06:00 +4°C° 0 mm 2 mps 679 mmHg 62%
    07:00 +3°C° 0 mm 2 mps 679 mmHg 62%
    08:00 +5°C° 0 mm 2 mps 680 mmHg 55%
    09:00 +6°C° 0 mm 2 mps 680 mmHg 49%
    10:00 +8°C° 0 mm 2 mps 680 mmHg 42%
    11:00 +9°C° 0 mm 1 mps 680 mmHg 39%
    12:00 +10°C° 0 mm 1 mps 679 mmHg 36%
    13:00 +11°C° 0 mm 1 mps 679 mmHg 32%
    14:00 +11°C° 0 mm 1 mps 678 mmHg 31%
    15:00 +11°C° 0 mm 1 mps 678 mmHg 31%
    16:00 +11°C° 0 mm 1 mps 677 mmHg 30%
    17:00 +11°C° 0 mm 1 mps 677 mmHg 33%
    18:00 +10°C° 0 mm 1 mps 677 mmHg 35%
    19:00 +9°C° 0 mm 1 mps 677 mmHg 38%
    20:00 +9°C° 0 mm 1 mps 677 mmHg 39%
    21:00 +8°C° 0 mm 1 mps 677 mmHg 39%
    22:00 +8°C° 0 mm 1 mps 677 mmHg 40%
    23:00 +6°C° 0 mm 2 mps 676 mmHg 38%

    27 February, Wednesday

    Time Temperature Precipitation Wind Pressure Humidity
    00:00 +6°C° 0 mm 2 mps 675 mmHg 36%
    01:00 +5°C° 0 mm 3 mps 675 mmHg 35%
    02:00 +5°C° 0 mm 3 mps 674 mmHg 34%
    03:00 +4°C° 0 mm 3 mps 674 mmHg 33%
    04:00 +4°C° 0 mm 4 mps 673 mmHg 33%
    05:00 +4°C° 0 mm 4 mps 673 mmHg 33%
    06:00 +4°C° 0 mm 4 mps 673 mmHg 34%
    07:00 +4°C° 0 mm 4 mps 673 mmHg 35%
    08:00 +7°C° 0 mm 5 mps 673 mmHg 30%
    09:00 +9°C° 0 mm 5 mps 673 mmHg 25%
    10:00 +13°C° 0 mm 6 mps 673 mmHg 20%
    11:00 +14°C° 0 mm 7 mps 673 mmHg 19%
    12:00 +15°C° 0 mm 9 mps 672 mmHg 18%
    13:00 +16°C° 0 mm 10 mps 672 mmHg 17%
    14:00 +16°C° 0 mm 11 mps 671 mmHg 18%
    15:00 +16°C° 0 mm 11 mps 671 mmHg 19%
    16:00 +16°C° 0 mm 11 mps 670 mmHg 21%
    17:00 +14°C° 0.3 mm 10 mps 670 mmHg 25%
    18:00 +13°C° 0.3 mm 8 mps 670 mmHg 30%
    19:00 +11°C° 0.3 mm 7 mps 670 mmHg 34%
    20:00 +11°C° 0 mm 7 mps 670 mmHg 35%
    21:00 +11°C° 0 mm 7 mps 670 mmHg 36%
    22:00 +10°C° 0 mm 8 mps 670 mmHg 37%
    23:00 +11°C° 0.2 mm 8 mps 669 mmHg 36%
    Show more